IMBER LIPZ-LIPQ

Flight info

Callsign IMBER
Flight time 0h 25m
Altitude 12000
Route MD22L DCT PQ401 DCT ELPEZ
Aircraft SF50/L-BDGRSWY/LB2U2

Departure

Time 2026-05-08 16:54
Airport Venice Marco Polo Airport (LIPZ)

Arrival

Time 2026-05-08 17:20
Airport Trieste Airport (LIPQ)
Time Latitude Longitude Altitude Speed Heading
2026-05-08 16:16 45.49864 12.33701 9 ft 0 kts 40°
2026-05-08 16:34 45.49864 12.33702 9 ft 0 kts 40°
2026-05-08 16:34 45.49864 12.33701 9 ft 0 kts 39°
2026-05-08 16:34 45.49855 12.33691 9 ft 2 kts 38°
2026-05-08 16:34 45.49851 12.33685 9 ft 0 kts 107°
2026-05-08 16:35 45.49852 12.33681 9 ft 0 kts 59°
2026-05-08 16:35 45.49850 12.33681 9 ft 0 kts 277°
2026-05-08 16:35 45.49851 12.33684 9 ft 0 kts 173°
2026-05-08 16:35 45.49852 12.33682 9 ft 0 kts 66°
2026-05-08 16:36 45.49851 12.33681 9 ft 0 kts 347°
2026-05-08 16:36 45.49845 12.33690 9 ft 1 kts 232°
2026-05-08 16:36 45.49850 12.33688 9 ft 0 kts 71°
2026-05-08 16:36 45.49858 12.33696 9 ft 0 kts 34°
2026-05-08 16:40 45.49859 12.33699 9 ft 1 kts 95°
2026-05-08 16:40 45.49849 12.33691 9 ft 0 kts 213°
2026-05-08 16:40 45.49818 12.33679 9 ft 4 kts 146°
2026-05-08 16:40 45.49801 12.33703 9 ft 2 kts 140°
2026-05-08 16:41 45.49784 12.33699 9 ft 9 kts 226°
2026-05-08 16:41 45.49748 12.33660 9 ft 7 kts 214°
2026-05-08 16:41 45.49676 12.33604 8 ft 20 kts 222°
2026-05-08 16:42 45.49576 12.33512 8 ft 4 kts 149°
2026-05-08 16:42 45.49558 12.33531 8 ft 0 kts 136°
2026-05-08 16:42 45.49558 12.33532 8 ft 0 kts 131°
2026-05-08 16:45 45.49550 12.33544 8 ft 0 kts 133°
2026-05-08 16:46 45.49541 12.33557 8 ft 6 kts 137°
2026-05-08 16:46 45.49533 12.33569 8 ft 0 kts 132°
2026-05-08 16:49 45.49530 12.33574 8 ft 3 kts 132°
2026-05-08 16:49 45.49500 12.33620 8 ft 5 kts 131°
2026-05-08 16:50 45.49498 12.33624 8 ft 0 kts 131°
2026-05-08 16:53 45.49454 12.33694 8 ft 13 kts 133°
2026-05-08 16:53 45.49426 12.33788 8 ft 8 kts 61°
2026-05-08 16:53 45.49516 12.33907 9 ft 53 kts 42°
2026-05-08 16:54 45.49987 12.34517 99 ft 113 kts 44°
2026-05-08 16:54 45.50510 12.35246 786 ft 106 kts 46°
2026-05-08 16:54 45.51010 12.35990 1440 ft 105 kts 46°
2026-05-08 16:54 45.51512 12.36689 2092 ft 104 kts 43°
2026-05-08 16:55 45.52053 12.37342 2682 ft 107 kts 40°
2026-05-08 16:55 45.52616 12.38008 3294 ft 108 kts 40°
2026-05-08 16:55 45.53196 12.38753 3796 ft 121 kts 51°
2026-05-08 16:55 45.53653 12.39900 4076 ft 153 kts 80°
2026-05-08 16:56 45.53559 12.41581 4127 ft 189 kts 96°
2026-05-08 16:56 45.53358 12.43536 4403 ft 199 kts 98°
2026-05-08 16:56 45.53159 12.45466 4863 ft 197 kts 98°
2026-05-08 16:56 45.52962 12.47389 5307 ft 197 kts 97°
2026-05-08 16:57 45.52768 12.49293 5716 ft 197 kts 97°
2026-05-08 16:57 45.52562 12.51314 6056 ft 214 kts 97°
2026-05-08 16:57 45.51997 12.53153 6982 ft 208 kts 137°
2026-05-08 16:57 45.50708 12.53848 7779 ft 208 kts 178°
2026-05-08 16:58 45.49273 12.53703 8510 ft 209 kts 185°
2026-05-08 16:58 45.47831 12.53418 9197 ft 212 kts 187°
2026-05-08 16:58 45.46378 12.53089 9878 ft 214 kts 188°
2026-05-08 16:58 45.44912 12.52748 10546 ft 216 kts 188°
2026-05-08 16:59 45.43438 12.52399 11196 ft 217 kts 188°
2026-05-08 16:59 45.41946 12.52045 11826 ft 217 kts 188°
2026-05-08 16:59 45.40427 12.51684 12000 ft 224 kts 189°
2026-05-08 16:59 45.38883 12.51317 11996 ft 228 kts 188°
2026-05-08 17:00 45.37305 12.50942 12011 ft 231 kts 189°
2026-05-08 17:00 45.35718 12.50566 12010 ft 233 kts 188°
2026-05-08 17:00 45.34108 12.50184 12009 ft 235 kts 188°
2026-05-08 17:00 45.32586 12.49329 12034 ft 236 kts 209°
2026-05-08 17:01 45.31160 12.48173 12015 ft 238 kts 209°
2026-05-08 17:01 45.29727 12.46982 12008 ft 238 kts 209°
2026-05-08 17:01 45.28307 12.45795 12007 ft 238 kts 209°
2026-05-08 17:01 45.26884 12.44605 12001 ft 238 kts 209°
2026-05-08 17:02 45.25458 12.43416 12001 ft 238 kts 210°
2026-05-08 17:02 45.24031 12.42223 12015 ft 238 kts 209°
2026-05-08 17:02 45.22519 12.41380 12008 ft 238 kts 180°
2026-05-08 17:02 45.20982 12.42097 12025 ft 237 kts 141°
2026-05-08 17:03 45.20118 12.44059 12016 ft 237 kts 102°
2026-05-08 17:03 45.20336 12.46324 12014 ft 243 kts 63°
2026-05-08 17:03 45.21462 12.48180 12020 ft 253 kts 44°
2026-05-08 17:03 45.22792 12.49840 12019 ft 260 kts 40°
2026-05-08 17:04 45.24210 12.51513 12023 ft 265 kts 39°
2026-05-08 17:04 45.25646 12.53183 12019 ft 269 kts 39°
2026-05-08 17:04 45.27085 12.54860 12014 ft 271 kts 39°
2026-05-08 17:04 45.28333 12.56309 12014 ft 273 kts 39°
2026-05-08 17:05 45.28921 12.56995 12006 ft 273 kts 39°
2026-05-08 17:05 45.30240 12.58529 12005 ft 274 kts 39°
2026-05-08 17:05 45.31699 12.60230 12014 ft 274 kts 39°
2026-05-08 17:06 45.33183 12.61957 12015 ft 275 kts 39°
2026-05-08 17:06 45.34659 12.63680 12000 ft 275 kts 39°
2026-05-08 17:06 45.36126 12.65392 12011 ft 275 kts 40°
2026-05-08 17:06 45.37615 12.67131 12006 ft 275 kts 40°
2026-05-08 17:07 45.39093 12.68858 12011 ft 275 kts 40°
2026-05-08 17:07 45.40564 12.70579 12007 ft 275 kts 40°
2026-05-08 17:07 45.42050 12.72318 12011 ft 275 kts 40°
2026-05-08 17:07 45.43533 12.74055 12007 ft 276 kts 40°
2026-05-08 17:08 45.45026 12.75806 12013 ft 276 kts 40°
2026-05-08 17:08 45.46484 12.77514 12010 ft 276 kts 40°
2026-05-08 17:08 45.47968 12.79256 12001 ft 276 kts 40°
2026-05-08 17:08 45.49455 12.81002 12001 ft 276 kts 40°
2026-05-08 17:09 45.50935 12.82742 12008 ft 275 kts 40°
2026-05-08 17:09 45.52400 12.84465 12002 ft 276 kts 40°
2026-05-08 17:09 45.53887 12.86216 12002 ft 275 kts 40°
2026-05-08 17:09 45.55352 12.87941 12001 ft 275 kts 40°
2026-05-08 17:10 45.56819 12.89669 12006 ft 275 kts 40°
2026-05-08 17:10 45.58293 12.91410 11996 ft 274 kts 40°
2026-05-08 17:10 45.59759 12.93140 11996 ft 274 kts 40°
2026-05-08 17:10 45.61231 12.94877 11999 ft 274 kts 40°
2026-05-08 17:11 45.62704 12.96619 11778 ft 273 kts 39°
2026-05-08 17:11 45.64156 12.98337 11546 ft 269 kts 39°
2026-05-08 17:11 45.65600 13.00045 11311 ft 267 kts 39°
2026-05-08 17:11 45.67010 13.01714 11089 ft 265 kts 39°
2026-05-08 17:12 45.68422 13.03388 10872 ft 264 kts 40°
2026-05-08 17:12 45.69839 13.05069 10640 ft 263 kts 40°
2026-05-08 17:12 45.71250 13.06744 10411 ft 262 kts 39°
2026-05-08 17:12 45.72654 13.08412 9974 ft 263 kts 39°
2026-05-08 17:13 45.74005 13.10018 9356 ft 247 kts 39°
2026-05-08 17:13 45.75292 13.11545 8724 ft 237 kts 40°
2026-05-08 17:13 45.76537 13.13026 8095 ft 230 kts 40°
2026-05-08 17:13 45.77737 13.14453 7483 ft 225 kts 40°
2026-05-08 17:14 45.78925 13.15869 6850 ft 221 kts 40°
2026-05-08 17:14 45.80102 13.17270 6130 ft 221 kts 41°
2026-05-08 17:14 45.81280 13.18680 5393 ft 221 kts 41°
2026-05-08 17:14 45.82415 13.20121 4664 ft 221 kts 52°
2026-05-08 17:15 45.82832 13.22182 3950 ft 220 kts 87°
2026-05-08 17:15 45.82874 13.24323 3242 ft 219 kts 90°
2026-05-08 17:15 45.82870 13.26426 3022 ft 197 kts 90°
2026-05-08 17:15 45.82868 13.28274 2783 ft 185 kts 89°
2026-05-08 17:16 45.82873 13.30113 2322 ft 180 kts 90°
2026-05-08 17:16 45.82875 13.31782 1982 ft 152 kts 88°
2026-05-08 17:16 45.82867 13.33189 1599 ft 134 kts 90°
2026-05-08 17:16 45.82849 13.34433 1392 ft 112 kts 89°
2026-05-08 17:17 45.82848 13.35427 1243 ft 94 kts 89°
2026-05-08 17:17 45.82847 13.36391 1123 ft 97 kts 89°
2026-05-08 17:17 45.82840 13.37355 1020 ft 97 kts 89°
2026-05-08 17:17 45.82839 13.38303 924 ft 96 kts 90°
2026-05-08 17:18 45.82823 13.39275 810 ft 97 kts 91°
2026-05-08 17:18 45.82818 13.40245 702 ft 98 kts 89°
2026-05-08 17:18 45.82819 13.41238 575 ft 100 kts 89°
2026-05-08 17:18 45.82816 13.42247 443 ft 102 kts 90°
2026-05-08 17:19 45.82811 13.43268 311 ft 103 kts 91°
2026-05-08 17:19 45.82805 13.44306 181 ft 103 kts 91°
2026-05-08 17:19 45.82794 13.45332 54 ft 103 kts 91°
2026-05-08 17:19 45.82787 13.46260 32 ft 75 kts 91°
2026-05-08 17:20 45.82787 13.46672 33 ft 22 kts 92°
2026-05-08 17:20 45.82734 13.46785 32 ft 12 kts 174°
2026-05-08 17:20 45.82676 13.46789 32 ft 6 kts 183°
2026-05-08 17:20 45.82640 13.46796 32 ft 4 kts 150°
2026-05-08 17:21 45.82616 13.46851 32 ft 6 kts 90°
2026-05-08 17:21 45.82618 13.46936 32 ft 11 kts 95°
2026-05-08 17:21 45.82618 13.47057 32 ft 13 kts 90°
2026-05-08 17:21 45.82616 13.47179 32 ft 10 kts 90°
2026-05-08 17:22 45.82616 13.47280 33 ft 9 kts 90°
2026-05-08 17:22 45.82615 13.47389 33 ft 16 kts 90°
2026-05-08 17:22 45.82614 13.47564 33 ft 14 kts 87°
2026-05-08 17:22 45.82616 13.47687 33 ft 11 kts 88°
2026-05-08 17:23 45.82596 13.47798 34 ft 14 kts 111°
2026-05-08 17:23 45.82530 13.47928 33 ft 16 kts 143°
2026-05-08 17:23 45.82449 13.48017 33 ft 11 kts 130°
2026-05-08 17:23 45.82360 13.48132 32 ft 18 kts 141°
2026-05-08 17:24 45.82301 13.48193 32 ft 3 kts 165°
2026-05-08 17:24 45.82267 13.48198 31 ft 7 kts 172°
2026-05-08 17:24 45.82257 13.48296 31 ft 13 kts 83°
2026-05-08 17:24 45.82275 13.48444 31 ft 10 kts 77°
2026-05-08 17:25 45.82299 13.48573 31 ft 11 kts 52°
2026-05-08 17:25 45.82336 13.48592 31 ft 6 kts 83°
2026-05-08 17:25 45.82336 13.48643 31 ft 0 kts 89°
2026-05-08 17:25 45.82336 13.48655 31 ft 1 kts 85°
2026-05-08 17:26 45.82336 13.48660 31 ft 0 kts 91°